Zurück zum Katalog

COSMOS 342

AktivMilitärLEO
NORAD 4389·PAYLOAD·🇷🇺 Russia

Gestartet Apr 25, 1970 von Plesetsk Cosmodrome

Loading…

Nächste Überflüge (nächste 24 Stunden)

TLE

AktuellSource: Space-Track

Epoche: Sep 14, 2026, 10:00 UTC

1 04389U 70036G   26257.41681532 -.00000025  00000-0 -46428-4 0  9999
2 04389  74.0254 248.1469 0100526 114.0936  51.0198 12.68341514610433

Verfolge COSMOS 342 in Echtzeit mit AllMySat

Download on the App Store